When you browse on this site, cookies collect data to enhance your experience and personalize the content and advertising you see.
Visit our Privacy Policy to learn more. By continuing to use the site, you agree to this use of cookies and data.
EN

Hourly Weather Nikolske (Volodarskoe)

Today, 14 July, Tuesday

Time Temperature Precipitation Wind Pressure Humidity
00:00 +20°C° 1.2 mm 3 mps 743 mmHg 93%
01:00 +20°C° 1.2 mm 3 mps 743 mmHg 93%
02:00 +20°C° 1.2 mm 2 mps 743 mmHg 93%
03:00 +20°C° 0.2 mm 2 mps 743 mmHg 93%
04:00 +20°C° 0.2 mm 3 mps 744 mmHg 92%
05:00 +20°C° 0.2 mm 3 mps 744 mmHg 91%
06:00 +20°C° 0 mm 4 mps 744 mmHg 88%
07:00 +20°C° 0 mm 5 mps 744 mmHg 84%
08:00 +20°C° 0 mm 6 mps 745 mmHg 81%
09:00 +21°C° 0 mm 6 mps 745 mmHg 75%
10:00 +22°C° 0 mm 6 mps 745 mmHg 70%
11:00 +24°C° 0 mm 6 mps 746 mmHg 65%
12:00 +24°C° 0.1 mm 6 mps 746 mmHg 63%
13:00 +24°C° 0.1 mm 6 mps 746 mmHg 62%
14:00 +24°C° 0.1 mm 6 mps 746 mmHg 61%
15:00 +23°C° 0.1 mm 6 mps 746 mmHg 61%
16:00 +23°C° 0.1 mm 6 mps 746 mmHg 62%
17:00 +22°C° 0.1 mm 6 mps 747 mmHg 63%
18:00 +21°C° 0 mm 6 mps 747 mmHg 69%
19:00 +19°C° 0 mm 5 mps 747 mmHg 75%
20:00 +18°C° 0 mm 4 mps 748 mmHg 82%
21:00 +17°C° 0 mm 4 mps 748 mmHg 83%
22:00 +17°C° 0 mm 4 mps 748 mmHg 84%
23:00 +15°C° 0 mm 5 mps 748 mmHg 85%

Tomorrow, 15 July, Wednesday

Time Temperature Precipitation Wind Pressure Humidity
00:00 +15°C° 0 mm 5 mps 749 mmHg 86%
01:00 +14°C° 0 mm 4 mps 749 mmHg 86%
02:00 +14°C° 0 mm 4 mps 749 mmHg 87%
03:00 +14°C° 0 mm 5 mps 749 mmHg 87%
04:00 +14°C° 0 mm 5 mps 750 mmHg 86%
05:00 +14°C° 0 mm 5 mps 750 mmHg 86%
06:00 +15°C° 0 mm 5 mps 750 mmHg 81%
07:00 +17°C° 0 mm 5 mps 751 mmHg 75%
08:00 +19°C° 0 mm 5 mps 751 mmHg 70%
09:00 +21°C° 0 mm 5 mps 751 mmHg 63%
10:00 +22°C° 0 mm 4 mps 751 mmHg 57%
11:00 +25°C° 0 mm 4 mps 751 mmHg 50%
12:00 +25°C° 0 mm 4 mps 751 mmHg 48%
13:00 +25°C° 0 mm 4 mps 751 mmHg 46%
14:00 +26°C° 0 mm 4 mps 751 mmHg 43%
15:00 +26°C° 0 mm 4 mps 751 mmHg 43%
16:00 +26°C° 0 mm 4 mps 751 mmHg 43%
17:00 +26°C° 0 mm 4 mps 751 mmHg 43%
18:00 +24°C° 0 mm 3 mps 751 mmHg 49%
19:00 +21°C° 0 mm 3 mps 752 mmHg 54%
20:00 +20°C° 0 mm 2 mps 752 mmHg 59%
21:00 +19°C° 0 mm 2 mps 752 mmHg 62%
22:00 +18°C° 0 mm 2 mps 752 mmHg 65%
23:00 +18°C° 0 mm 2 mps 752 mmHg 68%

Day after tomorrow, 16 July, Thursday

Time Temperature Precipitation Wind Pressure Humidity
00:00 +18°C° 0 mm 2 mps 752 mmHg 68%
01:00 +17°C° 0 mm 2 mps 751 mmHg 68%
02:00 +17°C° 0 mm 2 mps 751 mmHg 69%
03:00 +17°C° 0 mm 2 mps 751 mmHg 69%
04:00 +19°C° 0 mm 1 mps 751 mmHg 69%
05:00 +19°C° 0 mm 1 mps 751 mmHg 69%
06:00 +21°C° 0 mm 1 mps 751 mmHg 63%
07:00 +23°C° 0 mm 1 mps 751 mmHg 56%
08:00 +25°C° 0 mm 1 mps 752 mmHg 50%
09:00 +26°C° 0 mm 1 mps 751 mmHg 46%
10:00 +27°C° 0 mm 2 mps 751 mmHg 43%
11:00 +27°C° 0 mm 2 mps 751 mmHg 40%
12:00 +27°C° 0 mm 2 mps 751 mmHg 40%
13:00 +27°C° 0 mm 2 mps 751 mmHg 41%
14:00 +27°C° 0 mm 3 mps 750 mmHg 42%
15:00 +27°C° 0 mm 2 mps 750 mmHg 42%
16:00 +27°C° 0 mm 2 mps 750 mmHg 43%
17:00 +27°C° 0 mm 1 mps 750 mmHg 43%
18:00 +25°C° 0 mm 1 mps 750 mmHg 49%
19:00 +24°C° 0 mm 1 mps 750 mmHg 55%
20:00 +22°C° 0 mm 1 mps 750 mmHg 60%
21:00 +21°C° 0 mm 1 mps 750 mmHg 61%
22:00 +20°C° 0 mm 2 mps 750 mmHg 62%
23:00 +20°C° 0 mm 3 mps 749 mmHg 62%

17 July, Friday

Time Temperature Precipitation Wind Pressure Humidity
00:00 +19°C° 0 mm 3 mps 749 mmHg 63%
01:00 +19°C° 0 mm 3 mps 749 mmHg 64%
02:00 +19°C° 0 mm 3 mps 749 mmHg 64%
03:00 +19°C° 0 mm 3 mps 749 mmHg 66%
04:00 +19°C° 0 mm 3 mps 749 mmHg 67%
05:00 +19°C° 0 mm 3 mps 749 mmHg 68%
06:00 +21°C° 0 mm 3 mps 749 mmHg 63%
07:00 +22°C° 0 mm 4 mps 749 mmHg 59%
08:00 +25°C° 0 mm 4 mps 750 mmHg 54%
09:00 +26°C° 0 mm 3 mps 750 mmHg 49%
10:00 +27°C° 0 mm 3 mps 750 mmHg 44%
11:00 +28°C° 0 mm 3 mps 750 mmHg 40%
12:00 +29°C° 0 mm 3 mps 750 mmHg 38%
13:00 +29°C° 0 mm 3 mps 749 mmHg 37%
14:00 +29°C° 0 mm 3 mps 749 mmHg 35%
15:00 +29°C° 0 mm 3 mps 749 mmHg 37%
16:00 +29°C° 0 mm 3 mps 749 mmHg 39%
17:00 +28°C° 0 mm 3 mps 749 mmHg 41%
18:00 +27°C° 0 mm 3 mps 749 mmHg 46%
19:00 +25°C° 0 mm 3 mps 749 mmHg 51%
20:00 +22°C° 0 mm 4 mps 750 mmHg 56%
21:00 +22°C° 0 mm 4 mps 750 mmHg 58%
22:00 +21°C° 0 mm 4 mps 750 mmHg 60%
23:00 +20°C° 0 mm 4 mps 750 mmHg 63%

18 July, Saturday

Time Temperature Precipitation Wind Pressure Humidity
00:00 +20°C° 0 mm 4 mps 750 mmHg 63%
01:00 +20°C° 0 mm 4 mps 750 mmHg 64%
02:00 +19°C° 0 mm 5 mps 750 mmHg 64%
03:00 +19°C° 0 mm 4 mps 750 mmHg 63%
04:00 +19°C° 0 mm 4 mps 750 mmHg 62%
05:00 +19°C° 0 mm 4 mps 750 mmHg 61%
06:00 +21°C° 0 mm 5 mps 750 mmHg 55%
07:00 +23°C° 0 mm 5 mps 750 mmHg 50%
08:00 +26°C° 0 mm 6 mps 750 mmHg 44%
09:00 +28°C° 0 mm 5 mps 750 mmHg 41%
10:00 +29°C° 0 mm 5 mps 750 mmHg 38%
11:00 +32°C° 0 mm 5 mps 750 mmHg 34%
12:00 +32°C° 0 mm 5 mps 750 mmHg 34%
13:00 +32°C° 0 mm 5 mps 750 mmHg 34%
14:00 +33°C° 0 mm 5 mps 749 mmHg 34%
15:00 +33°C° 0 mm 4 mps 749 mmHg 34%
16:00 +33°C° 0 mm 4 mps 749 mmHg 34%
17:00 +32°C° 0 mm 4 mps 749 mmHg 35%
18:00 +30°C° 0 mm 4 mps 749 mmHg 40%
19:00 +28°C° 0 mm 4 mps 749 mmHg 45%
20:00 +26°C° 0 mm 4 mps 749 mmHg 50%
21:00 +25°C° 0 mm 5 mps 749 mmHg 50%
22:00 +25°C° 0 mm 5 mps 749 mmHg 50%
23:00 +24°C° 0 mm 6 mps 749 mmHg 49%

19 July, Sunday

Time Temperature Precipitation Wind Pressure Humidity
00:00 +24°C° 0 mm 6 mps 749 mmHg 48%
01:00 +24°C° 0 mm 6 mps 749 mmHg 47%
02:00 +24°C° 0 mm 6 mps 749 mmHg 46%
03:00 +23°C° 0 mm 6 mps 749 mmHg 47%
04:00 +23°C° 0 mm 6 mps 749 mmHg 48%
05:00 +23°C° 0 mm 5 mps 749 mmHg 49%
06:00 +25°C° 0 mm 5 mps 749 mmHg 48%
07:00 +26°C° 0 mm 6 mps 748 mmHg 46%
08:00 +28°C° 0 mm 6 mps 748 mmHg 44%
09:00 +30°C° 0 mm 5 mps 748 mmHg 40%
10:00 +33°C° 0 mm 5 mps 748 mmHg 35%
11:00 +34°C° 0 mm 5 mps 748 mmHg 31%
12:00 +35°C° 0 mm 4 mps 748 mmHg 29%
13:00 +36°C° 0 mm 4 mps 747 mmHg 27%
14:00 +36°C° 0 mm 4 mps 747 mmHg 25%
15:00 +36°C° 0 mm 3 mps 747 mmHg 26%
16:00 +36°C° 0 mm 3 mps 746 mmHg 27%
17:00 +36°C° 0 mm 2 mps 746 mmHg 28%
18:00 +34°C° 0 mm 3 mps 746 mmHg 32%
19:00 +30°C° 0 mm 3 mps 746 mmHg 37%
20:00 +28°C° 0 mm 4 mps 746 mmHg 42%
21:00 +28°C° 0 mm 5 mps 746 mmHg 42%
22:00 +28°C° 0 mm 5 mps 746 mmHg 42%
23:00 +28°C° 0 mm 5 mps 745 mmHg 42%
Show more